Regional Weather Roundup
Issued by NWS Upton, NY

Current Version | Previous Version | Text Only | Print | Product List | Glossary On
Versions: 1 2 3 4 5 6 7 8 9 10 11 12 13 14 15 16 17 18 19 20 21 22 23 24 25 26 27 28 29 30 31 32 33 34 35 36 37 38 39 40 41 42 43 44 45 46 47 48 49 50
000 ASUS41 KOKX 222005 RWROKX REGIONAL WEATHER ROUNDUP NATIONAL WEATHER SERVICE NEW YORK NY 300 PM EST SAT NOV 22 2014 NOTE: "FAIR" INDICATES FEW OR NO CLOUDS BELOW 12,000 FEET WITH NO SIGNIFICANT WEATHER AND/OR OBSTRUCTIONS TO VISIBILITY. NYZ071-072-176-178-NJZ106-104-222100- NEW YORK CITY METRO AREA CITY SKY/WX TMP DP RH WIND PRES REMARKS CENTRAL PARK PTSUNNY 43 14 31 W9 30.31F LAGUARDIA APRT PTSUNNY 42 14 32 SW16G23 30.29F KENNEDY INTL PTSUNNY 43 16 33 SW14 30.32F NEWARK/LIBERTY PTSUNNY 42 15 33 SW12 30.30F BRNX BOT. GARD N/A N/A N/A N/A S6 30.28F TETERBORO PTSUNNY 43 12 28 SW14 30.28F $$ NYZ177-179-078>081-222100- LONG ISLAND NEW YORK CITY SKY/WX TMP DP RH WIND PRES REMARKS FARMINGDALE MOSUNNY 44 16 32 SW15G24 30.30F ISLIP PTSUNNY 42 20 41 SW16 30.28F SHIRLEY SUNNY 42 22 44 SW15G22 30.29F WESTHAMPTON SUNNY 42 25 50 SW17G25 30.30F MONTAUK POINT N/A 42 28 57 SW14G24 30.28F $$ NYZ052-065-067-222100- HUDSON VALLEY CITY SKY/WX TMP DP RH WIND PRES REMARKS WHITE PLAINS PTSUNNY 40 10 29 SW8 30.26F WCI 34 NEWBURGH PTSUNNY 39 10 30 S12G18 30.24F WCI 32 MONTGOMERY CLOUDY 40 11 30 SW15 30.21F WCI 32 POUGHKEEPSIE CLOUDY 43 8 23 SW12 30.23F ALBANY LGT RAIN 37 11 34 S14 30.15F WCI 28 $$ NJZ001-105-106-008-010-013-015-019>022-104-222100- NEW JERSEY CITY SKY/WX TMP DP RH WIND PRES REMARKS NEWARK/LIBERTY PTSUNNY 42 15 33 SW12 30.30F TETERBORO PTSUNNY 43 12 28 SW14 30.28F CALDWELL CLOUDY 42 11 28 W9 30.29F MORRISTOWN CLOUDY 43 12 28 W12G18 30.28F SOMERVILLE CLOUDY 44 13 28 SW8G17 30.28F SUSSEX CLOUDY 40 12 32 SW9 30.24F WCI 34 ANDOVER N/A 40 12 32 SW10 30.25F WCI 33 TRENTON PTSUNNY 42 17 36 SW10 30.31F MILLVILLE SUNNY 45 21 38 SW8 30.35F ATLANTIC CITY SUNNY 44 21 40 SW15G22 30.35F WRIGHTSTOWN MOSUNNY 44 15 31 SW17 30.29F TOMS RIVER MOSUNNY 45 16 31 SW10G17 30.34S BELMAR MOSUNNY 45 14 29 SW12G17 30.31S $$ PAZ047>061-062-071-222100- EASTERN PENNSYLVANIA CITY SKY/WX TMP DP RH WIND PRES REMARKS PHILADELPHIA PTSUNNY 46 17 31 SW17 30.34F ALLENTOWN CLOUDY 42 12 29 SW12 30.28F SCRANTON CLOUDY 41 10 28 SW8 30.19F $$ CTZ002-004>006-009-010-012-RIZ004-006-007-MAZ004-011-015-222100- SOUTHERN NEW ENGLAND IN CT CITY SKY/WX TMP DP RH WIND PRES REMARKS BRADLEY INTL PTSUNNY 44 9 23 SW14G22 30.19F HARTFORD SUNNY 40 13 33 S14 30.23F WCI 32 DANBURY MOSUNNY 40 8 26 SW14G26 30.24F WCI 32 WTRBRY/OXFORD SUNNY 39 12 33 SW12G17 30.23F WCI 32 BRIDGEPORT SUNNY 42 19 39 SW18 30.28F MERIDEN SUNNY 40 12 32 SW10G17 30.25F WCI 33 NEW HAVEN PTSUNNY 43 20 39 SW12G20 30.27F CHESTER FAIR 37 19 48 SW12G22 30.24F WCI 30 GROTON SUNNY 40 22 48 SW18G28 30.26F WCI 31 WILLIMANTIC SUNNY 40 16 37 SW8 30.23F WCI 34 IN RI CITY SKY/WX TMP DP RH WIND PRES REMARKS PROVIDENCE PTSUNNY 41 17 38 SW15G24 30.23F BLOCK ISLAND SUNNY 43 27 52 SW26G33 30.25F WESTERLY SUNNY 40 20 44 SW10G21 30.26F WCI 33 IN MA CITY SKY/WX TMP DP RH WIND PRES REMARKS BOSTON PTSUNNY 44 10 25 SW17G25 30.16F WORCESTER SUNNY 37 5 26 SW14 30.14F WCI 28 WESTFIELD CLOUDY 42 9 25 S14 30.17F PROVINCETOWN MOSUNNY 43 23 45 SW21G32 30.18F NANTUCKET MOSUNNY 46 31 55 SW28G39 30.26F $$ ANZ330-335-338-340-345-350-353-355-222100- COASTAL MARINE OBSERVATIONS STATION/POSITION TIME SKY/WX TEMP WIND PRES VSBY WAVE AIR SEA DIR/SP/G HT/PER (UTC) (F) (DEG/KT/KT) (MB) (MI) (FT/S) NY HARB ENTRANCE 2000 45 56 240/ 17/ 21 1026.4 3/ 4 4S FIRE IS 2000 51 N/A 4/ 5 20S FIRE ISLAND 2000 44 54 230/ 23/ 29 1026.3 4/ 5 23SW MTP 2000 N/A 6/ 6 HUDSON CANYON 2000 46 58 230/ 19/ 23 1027.1 4/ 5 EXECUTION ROCKS 2000 43 47 230/ 16/ 19 N/A WESTERN LI SOUND 2000 42 210/ 14/ 17 N/A 2/ 3 CENTRAL LI SOUND 1900 41 50 210/ 16/ 19 N/A 3/ 4 EASTERN LI SOUND 1900 42 53 220/ 17/ 23 N/A ROBBINS REEF 2000 41 230/ 16/ 19 1025.0 $$ >>>>>>>>>>>>>>>>>>>>>>>>>>>> KEY <<<<<<<<<<<<<<<<<<<<<<<<<<< > < > SKY/WX - SKY CONDITION/PRESENT WEATHER < > TMP - TEMPERATURE IN FAHRENHEIT < > DP - DEWPOINT IN FAHRENHEIT < > RH - RELATIVE HUMIDITY IN PERCENT < > WIND - DIRECTION AND SPEED IN MPH < > PRES - MEAN SEA LEVEL PRESSURE IN INCHES OF HG < > WCI - WIND CHILL INDEX < > VSB - VISIBILITY IN MILES < > HX - HEAT INDEX < > TC - TEMPERATURE IN CELSIUS < > VRB - VARIABLE WIND DIRECTION < > < >>>>>>>>>>>>>>>>>>>>>>>>>>>> KEY <<<<<<<<<<<<<<<<<<<<<<<<<<<

USA.gov is the U.S. government's official web portal to all federal, state and local government web resources and services.